TimeCST,TemperatureF,Dew PointF,Humidity,Sea Level PressureIn,VisibilityMPH,Wind Direction,Wind SpeedMPH,Gust SpeedMPH,PrecipitationIn,Events,Conditions,WindDirDegrees,DateUTC
6:00 AM,69,66,88,29.85,12,SW,4.6,,,,Clear,230,2012-12-15 12:00:00
6:00 AM,69.8,66.2,88,29.84,-9999.0,SW,4.6,-,N/A,,Clear,230,2012-12-15 12:00:00
7:00 AM,73.4,68.0,83,29.85,-9999.0,South,4.6,-,N/A,,Clear,170,2012-12-15 13:00:00
8:00 AM,78.8,68.0,69,29.88,-9999.0,West,3.5,-,N/A,,Clear,280,2012-12-15 14:00:00
9:00 AM,83,66,47,29.89,12,West,3.5,,,,Clear,260,2012-12-15 15:00:00
9:00 AM,84.2,66.2,55,29.88,-9999.0,West,3.5,-,N/A,,Clear,260,2012-12-15 15:00:00
10:00 AM,87.8,64.4,46,29.87,-9999.0,WSW,4.6,-,N/A,,Clear,250,2012-12-15 16:00:00
11:00 AM,87.8,64.4,46,29.84,-9999.0,West,5.8,-,N/A,,Clear,280,2012-12-15 17:00:00
12:00 PM,91,63,30,29.83,12,ENE,4.6,,,,Scattered Clouds,70,2012-12-15 18:00:00
12:00 PM,91.4,62.6,38,29.81,6.2,ENE,4.6,-,N/A,,Partly Cloudy,70,2012-12-15 18:00:00
1:00 PM,89.6,64.4,43,29.78,6.2,East,16.1,-,N/A,,Partly Cloudy,80,2012-12-15 19:00:00
2:00 PM,89.6,64.4,43,29.76,6.2,East,12.7,-,N/A,,Partly Cloudy,80,2012-12-15 20:00:00
3:00 PM,89,64,34,29.77,12,East,13.8,,,,Scattered Clouds,80,2012-12-15 21:00:00
3:00 PM,89.6,64.4,43,29.75,6.2,East,13.8,-,N/A,,Partly Cloudy,80,2012-12-15 21:00:00
4:00 PM,86.0,62.6,45,29.75,6.2,East,17.3,-,N/A,,Partly Cloudy,80,2012-12-15 22:00:00
5:00 PM,84.2,62.6,48,29.76,6.2,ENE,9.2,-,N/A,,Partly Cloudy,70,2012-12-15 23:00:00
6:00 PM,80,65,50,29.81,12,East,12.7,,,,Scattered Clouds,90,2012-12-16 00:00:00
6:00 PM,80.6,64.4,58,29.79,6.2,East,12.7,-,N/A,,Partly Cloudy,90,2012-12-16 00:00:00
7:00 PM,78.8,64.4,61,29.81,6.2,East,11.5,-,N/A,,Partly Cloudy,100,2012-12-16 01:00:00
8:00 PM,78.8,64.4,61,29.83,6.2,ENE,5.8,-,N/A,,Partly Cloudy,70,2012-12-16 02:00:00